Weather History for KCOQ - January, 2014

Change the Weather History Date:

Wednesday, January 15, 2014

  Actual Average (KDLH) Record (KDLH)
Temperature  
Mean Temperature 8 °F 10 °F  
Max Temperature 17 °F 19 °F 42 °F (1933)
Min Temperature -2 °F 1 °F -39 °F (1972)
Degree Days  
Heating Degree Days 58 55  
Month to date heating degree days 822  
Since 1 July heating degree days 4591  
Cooling Degree Days 0 0  
Month to date cooling degree days 0  
Year to date cooling degree days 0  
Moisture  
Dew Point 0 °F    
Average Humidity 78    
Maximum Humidity 86    
Minimum Humidity 67    
Precipitation  
Precipitation 0.00 in 0.03 in 0.73 in (1969)
Month to date precipitation 0.52  
Year to date precipitation 0.52  
Snow  
Snow 0.00 in 0.70 in 5.20 in (1953)
Month to date snowfall 10.1  
Since 1 July snowfall 43.9  
Snow Depth -    
Sea Level Pressure  
Sea Level Pressure 29.74 in    
Wind  
Wind Speed 10 mph (SW)    
Max Wind Speed 20 mph    
Max Gust Speed 26 mph    
Visibility 8 miles    
Events Snow    
T = Trace of Precipitation, MM = Missing Value Source: NWS Daily Summary

Daily Weather History Graph

Daily Weather History Graph

Search for Another Location

Airport or City:

Trip Planner

Search our weather history database for the weather conditions in past years. The results will help you decide how hot, cold, wet, or windy it might be!

Date:

Astronomy

Jan. 15, 2014 Rise Set
Actual Time 7:50 AM CST 4:49 PM CST
Civil Twilight 7:16 AM CST 5:23 PM CST
Nautical Twilight 6:38 AM CST 6:00 PM CST
Astronomical Twilight 6:02 AM CST 6:36 PM CST
Moon 4:51 PM CST (1/15) 7:03 AM CST (1/15)
Length of Visible Light 10h 06m
Length of Day
8h 58m
Full, 100% of the Moon is Illuminated
Jan 15
Full
Jan 15
Full
Jan 23
Last Quarter
Jan 30
New
Feb 6
First Quarter

Hourly Weather History & Observations

Time (CST) Temp. Windchill Dew Point Humidity Pressure Visibility Wind Dir Wind Speed Gust Speed Precip Events Conditions
12:16 AM 3.2 °F -15.3 °F -2.2 °F 78% 30.03 in 10.0 mi WNW 15.0 mph 21.9 mph N/A   Overcast
12:36 AM 3.2 °F -14.6 °F -2.2 °F 78% 30.02 in 10.0 mi NW 13.8 mph 19.6 mph N/A   Overcast
12:56 AM 3.2 °F -14.6 °F -2.2 °F 78% 30.02 in 10.0 mi WNW 13.8 mph 19.6 mph N/A   Overcast
1:16 AM 3.2 °F -16.5 °F -2.2 °F 78% 30.02 in 10.0 mi NW 17.3 mph - N/A   Overcast
1:36 AM 1.4 °F -15.3 °F -4.0 °F 78% 30.02 in 10.0 mi NW 11.5 mph 18.4 mph N/A   Mostly Cloudy
1:56 AM 1.4 °F -13.5 °F -4.0 °F 78% 30.03 in 10.0 mi NW 9.2 mph 18.4 mph N/A   Scattered Clouds
2:16 AM 1.4 °F -9.9 °F -4.0 °F 78% 30.03 in 10.0 mi NW 5.8 mph 9.2 mph N/A   Clear
2:36 AM -0.4 °F -13.4 °F -5.8 °F 78% 30.03 in 10.0 mi NW 6.9 mph - N/A   Clear
2:56 AM -0.4 °F -14.7 °F -5.8 °F 78% 30.02 in 10.0 mi WNW 8.1 mph - N/A   Clear
3:16 AM -0.4 °F -15.7 °F -5.8 °F 78% 30.03 in 10.0 mi NW 9.2 mph - N/A   Clear
3:36 AM -0.4 °F -13.4 °F -5.8 °F 78% 30.01 in 10.0 mi WNW 6.9 mph - N/A   Clear
3:56 AM -0.4 °F -14.7 °F -5.8 °F 78% 30.02 in 10.0 mi NW 8.1 mph - N/A   Clear
4:16 AM -2.2 °F -12.5 °F -5.8 °F 85% 30.02 in 10.0 mi WNW 4.6 mph - N/A   Scattered Clouds
4:36 AM -2.2 °F -12.5 °F -7.6 °F 78% 30.02 in 10.0 mi WNW 4.6 mph - N/A   Mostly Cloudy
4:56 AM -0.4 °F -10.4 °F -5.8 °F 78% 30.01 in 10.0 mi WNW 4.6 mph - N/A   Overcast
5:16 AM -0.4 °F - -5.8 °F 78% 30.01 in 10.0 mi Calm Calm - N/A   Overcast
5:36 AM -0.4 °F -10.4 °F -5.8 °F 78% 30.02 in 10.0 mi West 4.6 mph - N/A   Overcast
5:56 AM -0.4 °F -10.4 °F -5.8 °F 78% 30.02 in 10.0 mi West 4.6 mph - N/A   Overcast
6:16 AM -0.4 °F -8.3 °F -5.8 °F 78% 30.01 in 10.0 mi West 3.5 mph - N/A   Overcast
6:36 AM -0.4 °F - -5.8 °F 78% 30.00 in 10.0 mi Calm Calm - N/A Snow Light Snow
6:56 AM -0.4 °F - -5.8 °F 78% 30.00 in 10.0 mi Calm Calm - N/A   Overcast
7:16 AM -2.2 °F - -5.8 °F 85% 29.99 in 10.0 mi Calm Calm - N/A   Overcast
7:36 AM -2.2 °F - -5.8 °F 85% 29.99 in 10.0 mi Calm Calm - N/A   Overcast
7:56 AM -2.2 °F - -7.6 °F 78% 29.98 in 10.0 mi Calm Calm - N/A Snow Light Snow
8:16 AM -2.2 °F -10.4 °F -7.6 °F 78% 29.98 in 10.0 mi WSW 3.5 mph - N/A   Overcast
8:36 AM -2.2 °F - -5.8 °F 85% 29.98 in 7.0 mi Calm Calm - N/A Snow Light Snow
8:56 AM -0.4 °F - -5.8 °F 78% 29.98 in 5.0 mi Calm Calm - N/A Snow Light Snow
9:16 AM -0.4 °F - -5.8 °F 78% 29.95 in 7.0 mi Calm Calm - N/A Snow Light Snow
9:36 AM 1.4 °F -6.2 °F -4.0 °F 78% 29.94 in 7.0 mi SSW 3.5 mph - N/A   Overcast
9:56 AM 1.4 °F -11.3 °F -2.2 °F 85% 29.93 in 10.0 mi South 6.9 mph - N/A Snow Light Snow
10:16 AM 3.2 °F -9.1 °F -2.2 °F 78% 29.93 in 10.0 mi SSW 6.9 mph - N/A   Overcast
10:36 AM 3.2 °F -12.2 °F -2.2 °F 78% 29.92 in 10.0 mi SW 10.4 mph 18.4 mph N/A   Overcast
10:56 AM 5.0 °F -11.6 °F -0.4 °F 78% 29.90 in 7.0 mi SSW 12.7 mph 16.1 mph N/A   Overcast
11:16 AM 5.0 °F -9.1 °F -0.4 °F 78% 29.87 in 10.0 mi South 9.2 mph 12.7 mph N/A   Overcast
11:36 AM 5.0 °F -9.1 °F -0.4 °F 78% 29.85 in 10.0 mi SSW 9.2 mph - N/A   Mostly Cloudy
11:56 AM 5.0 °F -10.8 °F -0.4 °F 78% 29.84 in 10.0 mi SSW 11.5 mph - N/A   Mostly Cloudy
12:16 PM 6.8 °F -4.8 °F -0.4 °F 72% 29.81 in 10.0 mi SSW 6.9 mph - N/A   Scattered Clouds
12:36 PM 6.8 °F -9.3 °F -0.4 °F 72% 29.79 in 10.0 mi SSW 12.7 mph - N/A   Scattered Clouds
12:56 PM 6.8 °F -10.0 °F -0.4 °F 72% 29.78 in 10.0 mi South 13.8 mph - N/A   Mostly Cloudy
1:16 PM 8.6 °F -4.7 °F -0.4 °F 67% 29.76 in 10.0 mi South 9.2 mph - N/A   Mostly Cloudy
1:36 PM 8.6 °F -8.3 °F -0.4 °F 67% 29.73 in 10.0 mi South 15.0 mph 18.4 mph N/A   Scattered Clouds
1:55 PM 8.6 °F -7.0 °F -0.4 °F 67% 29.73 in 10.0 mi SSW 12.7 mph 17.3 mph N/A   Mostly Cloudy
2:16 PM 8.6 °F -7.0 °F -0.4 °F 67% 29.71 in 10.0 mi South 12.7 mph 17.3 mph N/A   Overcast
2:36 PM 8.6 °F -5.5 °F -0.4 °F 67% 29.70 in 10.0 mi SSW 10.4 mph 20.7 mph N/A   Overcast
2:56 PM 8.6 °F -4.7 °F -0.4 °F 67% 29.69 in 10.0 mi South 9.2 mph - N/A   Overcast
3:16 PM 8.6 °F -7.0 °F -0.4 °F 67% 29.67 in 10.0 mi South 12.7 mph 18.4 mph N/A   Overcast
3:35 PM 6.8 °F -11.3 °F -0.4 °F 72% 29.64 in 10.0 mi South 16.1 mph 21.9 mph N/A   Overcast
3:56 PM 6.8 °F -7.8 °F -0.4 °F 72% 29.60 in 4.0 mi South 10.4 mph 24.2 mph N/A Snow Light Snow
4:16 PM 6.8 °F -4.8 °F 1.4 °F 79% 29.58 in 2.5 mi South 6.9 mph 16.1 mph N/A Snow Light Snow
4:35 PM 6.8 °F -7.8 °F 1.4 °F 79% 29.57 in 2.0 mi South 10.4 mph - N/A Snow Light Snow
4:56 PM 6.8 °F -6.9 °F 1.4 °F 79% 29.54 in 3.0 mi SSE 9.2 mph 18.4 mph N/A Snow Light Snow
5:16 PM 6.8 °F -8.6 °F 1.4 °F 79% 29.52 in 1.5 mi South 11.5 mph 21.9 mph N/A Snow Light Snow
5:35 PM 6.8 °F -10.0 °F 1.4 °F 79% 29.49 in 2.5 mi South 13.8 mph 20.7 mph N/A Snow Light Snow
5:56 PM 6.8 °F -8.6 °F 3.2 °F 85% 29.48 in 3.0 mi South 11.5 mph 20.7 mph N/A Snow Light Snow
6:15 PM 8.6 °F -8.3 °F 3.2 °F 79% 29.48 in 7.0 mi South 15.0 mph 20.7 mph N/A   Overcast
6:36 PM 8.6 °F -9.5 °F 3.2 °F 79% 29.46 in 4.0 mi South 17.3 mph 23.0 mph N/A Snow Light Snow
6:56 PM 8.6 °F -10.0 °F 3.2 °F 79% 29.44 in 4.0 mi South 18.4 mph 26.5 mph N/A Snow Light Snow
7:16 PM 8.6 °F -8.9 °F 3.2 °F 79% 29.41 in 4.0 mi South 16.1 mph 25.3 mph N/A Snow Light Snow
7:36 PM 8.6 °F -9.5 °F 5.0 °F 85% 29.39 in 2.5 mi South 17.3 mph 24.2 mph N/A Snow Light Snow
7:56 PM 10.4 °F -5.4 °F 5.0 °F 79% 29.39 in 3.0 mi South 13.8 mph 25.3 mph N/A Snow Light Snow
8:16 PM 10.4 °F -8.2 °F 6.8 °F 85% 29.36 in 2.5 mi SSW 19.6 mph 26.5 mph N/A Snow Light Snow
8:36 PM 10.4 °F -7.2 °F 6.8 °F 85% 29.36 in 3.0 mi South 17.3 mph 25.3 mph N/A Snow Light Snow
8:56 PM 10.4 °F -6.6 °F 6.8 °F 85% 29.35 in 2.0 mi SSW 16.1 mph - N/A Snow Light Snow
9:16 PM 12.2 °F -5.3 °F 8.6 °F 85% 29.32 in 2.5 mi SSW 18.4 mph 25.3 mph N/A Snow Light Snow
9:36 PM 12.2 °F -3.1 °F 8.6 °F 85% 29.30 in 2.5 mi South 13.8 mph - N/A Snow Light Snow
9:56 PM 14.0 °F -2.0 °F 10.4 °F 86% 29.29 in 4.0 mi SSW 16.1 mph 23.0 mph N/A Snow Light Snow
10:15 PM 14.0 °F -0.8 °F 10.4 °F 86% 29.28 in 7.0 mi SSW 13.8 mph 20.7 mph N/A Snow Light Snow
10:36 PM 15.8 °F 1.4 °F 10.4 °F 79% 29.27 in 4.0 mi SSW 13.8 mph 20.7 mph N/A Snow Light Snow
10:56 PM 15.8 °F 0.3 °F 12.2 °F 86% 29.26 in 7.0 mi SSW 16.1 mph - N/A Snow Light Snow
11:15 PM 15.8 °F 1.4 °F 12.2 °F 86% 29.26 in 7.0 mi SSW 13.8 mph - N/A Snow Light Snow
11:36 PM 17.6 °F 4.3 °F 14.0 °F 86% 29.25 in 1.5 mi SW 12.7 mph - N/A Snow Light Snow
11:56 PM 17.6 °F 4.3 °F 14.0 °F 86% 29.24 in 1.2 mi SSW 12.7 mph - N/A Snow Light Snow